CST,Max TemperatureF,Mean TemperatureF,Min TemperatureF,Max Dew PointF,MeanDew PointF,Min DewpointF,Max Humidity, Mean Humidity, Min Humidity, Max Sea Level PressureIn, Mean Sea Level PressureIn, Min Sea Level PressureIn, Max VisibilityMiles, Mean VisibilityMiles, Min VisibilityMiles, Max Wind SpeedMPH, Mean Wind SpeedMPH, Max Gust SpeedMPH,PrecipitationIn, CloudCover, Events, WindDirDegrees
2012-2-1,67,55,43,61,55,44,100,78,56,30.13,30.07,30.02,10,5,1,16,3,21,T,6,Rain-Thunderstorm,170
2012-2-2,65,52,38,53,44,37,100,82,63,30.19,30.14,30.08,10,6,1,16,7,21,T,2,Rain,59
2012-2-3,66,61,55,63,58,52,93,90,86,30.08,29.99,29.92,10,8,2,20,7,23,0.41,8,Rain-Thunderstorm,70
2012-2-4,59,52,44,57,48,34,100,82,63,30.24,30.09,29.98,10,10,8,16,7,22,0.60,6,Rain-Thunderstorm,271
2012-2-5,46,43,40,35,32,30,76,67,58,30.37,30.31,30.25,10,10,10,14,6,21,0.00,8,,312
2012-2-6,56,44,31,39,35,30,100,74,47,30.34,30.26,30.18,10,10,5,8,1,12,0.00,1,,34
2012-2-7,53,45,37,46,42,38,96,80,63,30.34,30.25,30.21,10,10,6,5,0,8,0.01,7,Rain,50
2012-2-8,47,40,32,39,35,30,100,80,60,30.47,30.38,30.34,10,7,0,8,2,12,0.00,5,Fog,294
2012-2-9,50,42,33,38,35,32,100,81,61,30.36,30.27,30.16,10,9,6,8,3,13,0.00,8,,66
2012-2-10,55,43,30,45,37,19,96,75,54,30.33,30.14,30.06,10,7,1,18,5,25,T,6,Rain,358
2012-2-11,36,30,24,22,13,9,75,54,32,30.62,30.53,30.34,10,10,10,18,6,24,0.00,2,,322
2012-2-12,44,32,19,27,13,1,91,55,18,30.63,30.49,30.29,10,10,10,14,3,18,0.00,1,,83
2012-2-13,38,34,30,34,30,14,100,69,37,30.28,30.08,29.91,10,5,1,14,5,22,0.01,8,Rain-Snow,62
2012-2-14,46,40,34,41,37,33,100,88,76,30.05,29.98,29.93,10,9,6,10,3,13,0.00,7,,87
2012-2-15,50,46,42,50,46,41,100,96,92,30.03,29.97,29.91,10,4,0,10,4,13,T,8,Fog-Rain-Thunderstorm,47
2012-2-16,61,52,42,50,46,42,100,78,55,30.24,30.16,30.05,10,7,0,9,2,12,0.00,4,Fog,329
2012-2-17,57,50,42,47,44,42,100,81,62,30.19,30.13,30.05,10,10,6,13,3,17,0.00,6,,40
2012-2-18,54,49,44,44,42,36,100,82,64,30.05,29.96,29.86,10,9,4,18,6,23,0.08,6,Rain,13
2012-2-19,60,50,39,42,41,39,100,74,47,30.11,30.06,29.99,10,8,0,10,2,23,T,3,Fog-Rain,175
2012-2-20,59,48,37,46,40,35,100,72,44,30.14,30.03,29.88,10,9,2,22,8,32,0.25,3,Rain-Thunderstorm,119
2012-2-21,65,48,30,39,32,26,100,62,24,30.14,30.06,29.88,10,6,0,17,4,24,0.00,0,Fog,191
2012-2-22,73,56,39,55,43,37,96,65,33,29.86,29.70,29.56,10,10,10,21,5,25,0.00,3,,223
2012-2-23,78,58,37,47,38,31,100,63,25,29.75,29.46,29.37,10,10,10,25,9,35,0.00,0,,254
2012-2-24,57,44,30,30,22,16,85,52,19,30.33,30.14,29.81,10,10,10,21,8,29,0.00,1,,302
2012-2-25,61,44,26,34,26,18,100,60,19,30.39,30.29,30.18,10,10,10,15,3,20,0.00,0,,193
2012-2-26,65,47,28,39,32,25,92,59,26,30.22,30.15,30.05,10,10,10,17,5,26,0.00,0,,137
2012-2-27,69,55,40,51,45,40,92,66,40,30.33,30.25,30.20,10,10,10,14,3,18,0.00,6,,60
2012-2-28,71,64,56,64,55,46,90,76,62,30.21,30.03,29.87,10,10,5,12,6,15,T,7,,71
2012-2-29,74,58,41,64,45,26,89,53,17,29.94,29.90,29.87,10,10,10,20,8,29,0.00,3,,209